Tracking 28790 objects as of 19-Apr-2024
HD Live streaming from Space Station
objects crossing your sky now

APSTAR 6

Track APSTAR 6 now!
APSTAR 6 is classified as:


NORAD ID: 28638
Int'l Code: 2005-012A
Perigee: 36,229.1 km
Apogee: 36,324.0 km
Inclination: 5.3 °
Period: 1,460.8 minutes
Semi major axis: 42647 km
RCS: 31.6227 m2 (large)
Launch date: April 12, 2005
Source: People's Republic of China (PRC)
Launch site: Xichang Space Center, China (XSC)
Your satellite tracking list
Your tracking list is empty




NASA's NSSDC Master Catalog

Two Line Element Set (TLE):
1 28638U 05012A   24109.54285753 -.00000192  00000-0  00000-0 0  9993
2 28638   5.3370  78.4900 0011119 292.4466 208.5997  0.98573815 94257
Source of the keplerian elements: AFSPC